WGS F5 (USA 243)

Last updated on Sat Apr 13 2024 01:02:38 GMT+0100 (British Summer Time)

1 39168U 13024A 24103.51010674 -.00000293 00000+0 00000+0 0 9994 2 39168 0.0127 211.9387 0000706 145.0621 335.2914 1.00270770 39847
UTC large
Height (km)
Speed (km/s)
/
Latitude / Longitude
Inclination (degrees)
Orbital Period (minutes)
Azimuth
Elevation
Range (km)
Doppler Factor

Next 0 passes for location: London (51.5072 / 0.1276)

Sorry there are no passes over London.